Helicity
51 57 38 31 44 36 39 50 73 106 22 112 77 105 99 78 75 65 73 59 57 72 62 55 51 60 73 51 -5 -59 -124 210 413 284 394 341 36 179 148 231 205 225 270 254
57 60 60 44 59 63 62 84 112 130 39 147 143 135 84 96 80 75 86 59 54 10 18 26 59 68 60 76 48 -79 -84 -1 260 329 70 387 446 456 473 267 260 162 215 272
64 66 68 51 71 62 63 82 141 173 109 131 121 135 108 90 101 66 74 38 20 11 17 8 12 40 34 35 29 33 23 -103 -48 344 268 37 244 354 367 535 363 297 215 275
65 67 70 59 82 65 55 143 239 206 187 189 137 113 90 68 87 102 36 51 34 26 26 32 15 58 49 48 12 9 -15 -121 -39 -133 -65 -37 -134 247 370 280 500 447 416 423
70 63 83 70 83 60 86 149 198 205 114 129 113 128 105 82 72 65 26 43 3 13 11 12 -0 24 30 29 36 37 -17 -83 -32 -5 1 -126 -126 3 24 346 415 223 228 479
77 59 67 81 73 83 129 155 129 149 125 114 109 134 132 68 48 62 22 18 -10 -6 9 26 19 11 1 -3 13 17 2 -8 -14 -102 60 64 -135 17 -187 -81 129 285 473 352
58 72 65 78 70 98 119 116 150 183 144 121 104 83 70 54 39 38 15 21 8 46 -0 -9 2 4 11 12 5 -16 -1 18 18 22 -44 -117 25 74 43 -21 91 115 73 148
36 65 57 63 42 47 108 88 137 187 160 86 61 91 59 41 43 52 37 36 16 -7 -2 14 26 29 14 14 27 2 -11 5 42 65 90 -47 -26 57 66 15 -41 116 153 188
40 46 49 51 39 22 73 98 101 107 156 116 123 57 41 58 56 39 60 21 14 14 19 39 48 52 74 45 21 16 1 -3 7 57 99 92 39 45 52 54 -70 140 145 165
44 59 47 40 49 40 89 81 108 97 148 62 75 63 61 57 48 45 30 32 26 19 46 47 76 71 69 67 73 62 40 18 22 50 23 -2 80 80 14 70 106 121 129 117
47 41 47 16 50 50 117 112 121 119 129 58 56 55 38 43 33 28 46 21 35 17 29 40 67 59 94 77 97 84 66 55 50 6 24 27 115 43 51 37 60 90 119 142
50 41 34 17 38 54 100 139 126 91 108 102 69 45 30 8 -10 53 41 31 25 28 14 34 26 30 43 55 76 66 54 78 68 68 50 51 66 60 45 61 70 80 102 135
47 36 27 45 16 63 95 141 127 114 106 68 46 45 67 39 31 51 45 42 41 24 17 20 28 33 40 36 75 44 48 43 57 28 49 58 52 39 41 39 45 48 57 65
55 36 24 44 23 47 131 173 114 78 116 88 89 31 56 65 77 65 44 39 31 31 31 43 61 66 83 88 85 97 70 52 54 61 67 29 26 43 40 48 42 39 37 39
97 53 43 39 41 51 132 88 55 90 73 90 90 71 66 47 60 75 60 44 45 54 48 81 94 73 64 73 63 78 81 75 84 89 69 55 50 43 40 44 47 46 48 60
64 56 45 22 46 104 104 43 82 80 42 60 69 76 76 59 51 72 90 71 67 74 84 77 72 62 60 75 60 50 62 59 68 74 65 40 28 16 28 24 32 34 43 47
71 54 27 18 60 66 63 93 76 122 43 55 54 72 42 38 46 56 55 73 60 62 64 76 57 54 65 73 55 55 62 40 43 50 56 20 44 36 31 18 21 20 17 23
59 44 74 87 85 101 105 120 59 24 50 75 59 97 56 48 51 59 59 60 45 70 69 63 65 52 69 69 59 60 65 41 39 50 40 29 26 23 20 22 23 33 27 30
37 46 53 51 49 55 -17 36 80 55 67 71 56 40 47 49 35 28 31 42 64 55 67 66 50 69 83 60 46 52 57 48 43 46 24 19 17 23 25 28 35 39 40 45
39 49 68 101 41 -14 2 20 43 49 29 46 30 20 25 20 27 30 31 46 53 50 56 51 71 76 66 60 38 26 39 35 23 38 44 45 42 33 29 25 20 23 28 32
62 79 83 29 -5 6 6 18 17 1 12 10 25 24 15 31 31 45 50 56 47 53 59 61 63 75 82 56 44 30 32 33 28 24 22 24 22 26 25 24 24 27 32 32
44 42 14 5 13 11 30 29 18 25 32 34 30 27 21 20 23 36 54 67 65 76 59 61 66 67 59 55 49 35 31 34 37 35 36 36 31 30 25 22 24 26 27 26
38 48 56 36 20 77 70 69 44 31 41 41 30 35 29 28 33 36 49 69 93 73 87 82 86 82 71 55 38 33 28 32 33 38 35 34 31 27 28 24 25 27 25 24
81 79 101 72 76 69 47 31 28 26 26 32 36 36 53 43 52 62 73 79 81 91 90 83 76 64 46 38 33 33 32 28 28 29 32 31 28 28 26 21 20 24 28 26
76 56 90 68 44 35 24 20 19 26 22 25 31 39 50 57 70 80 85 92 109 108 88 66 55 42 38 38 42 40 35 31 26 27 25 25 20 20 21 21 18 20 23 24
38 34 40 26 36 45 45 37 34 29 19 23 30 39 52 75 70 86 117 110 112 79 57 46 34 35 41 48 46 39 32 31 30 31 30 28 29 31 25 18 14 21 22 20
40 44 33 31 38 35 31 30 34 26 22 33 30 46 50 38 60 69 61 72 65 61 54 41 39 44 44 39 34 30 30 27 27 27 34 36 36 30 21 30 30 28 23 14
Wind_Speed
66 72 75 76 80 84 66 59 70 63 63 73 67 73 62 55 54 56 52 52 54 61 68 69 68 59 57 61 62 61 49 62 86 78 73 70 67 73 76 83 78 86 72 65
66 68 74 73 74 78 65 67 59 53 61 73 74 64 56 50 54 55 48 49 54 59 61 60 56 56 55 57 57 55 58 55 77 84 49 41 45 49 62 73 74 78 86 70
63 65 69 69 70 72 60 59 67 57 54 54 63 66 57 55 48 49 43 50 47 50 55 49 51 54 52 58 50 50 56 62 67 89 77 66 66 63 55 58 75 76 76 58
62 64 63 67 67 68 56 57 60 57 64 57 58 53 51 53 52 44 49 46 42 51 47 58 56 59 63 54 43 53 54 68 72 74 76 74 64 64 61 56 53 63 56 50
60 62 61 64 65 64 54 60 61 53 59 51 51 48 47 50 47 50 49 40 34 46 47 52 66 65 60 53 52 61 50 59 66 74 67 62 60 56 55 56 57 44 36 43
58 59 61 58 63 58 53 51 46 51 55 50 51 49 47 48 46 42 42 42 34 34 56 52 53 55 58 62 63 55 51 55 63 68 59 61 64 54 42 40 43 55 65 55
57 54 54 57 56 51 48 48 48 53 62 53 48 46 43 44 45 46 45 45 33 38 39 47 34 36 49 44 44 43 49 52 55 69 68 80 50 43 37 33 37 39 40 46
54 55 50 55 53 52 45 44 45 48 59 52 48 39 43 41 39 38 39 37 37 38 36 40 42 31 34 32 36 38 42 49 51 54 60 57 53 54 56 62 56 48 52 51
55 55 56 55 52 49 45 39 32 41 52 48 46 43 37 37 41 38 35 40 36 32 31 32 37 41 42 40 37 37 40 43 48 53 58 64 55 57 56 58 63 49 48 48
58 58 57 55 51 45 44 40 26 36 46 40 35 36 39 36 33 32 34 47 35 31 36 38 39 40 35 44 45 48 48 46 49 52 48 45 51 52 48 68 65 54 52 50
60 61 61 58 52 43 39 38 24 29 38 36 30 29 26 29 28 25 44 40 32 35 36 37 37 38 38 40 40 47 48 48 45 46 48 52 51 42 52 52 52 53 53 53
58 64 62 59 54 39 33 35 23 19 26 32 35 26 22 28 28 33 36 35 35 37 38 36 34 38 35 40 46 37 43 40 42 41 40 32 34 30 33 39 45 48 51 52
67 62 60 62 57 40 26 31 21 25 30 30 25 31 29 26 26 33 34 32 35 32 32 36 33 34 35 43 36 35 35 37 40 36 31 30 33 36 38 40 42 44 46 48
73 65 59 63 55 44 23 25 16 21 32 35 32 30 30 34 35 31 30 33 32 30 32 34 34 35 37 37 36 37 40 40 36 35 33 32 34 37 40 43 43 43 44 45
71 71 68 61 51 40 23 15 16 16 24 32 33 30 35 36 31 31 31 30 31 32 30 34 33 30 30 33 32 35 41 37 40 37 34 37 36 41 42 45 47 47 48 49
69 70 63 55 44 35 28 27 21 13 17 29 31 32 37 39 31 29 30 32 33 33 32 33 30 31 29 31 34 33 36 36 36 37 42 42 42 42 43 47 49 49 49 49
72 66 62 51 35 23 28 32 30 19 22 29 32 30 35 37 30 27 33 34 34 33 31 32 29 31 32 31 33 36 38 34 33 38 42 39 39 44 49 48 49 48 48 49
65 63 50 49 42 36 36 44 30 26 27 32 30 31 29 40 34 32 32 35 34 37 30 29 30 30 32 32 33 35 37 35 36 40 41 42 45 47 47 48 48 50 50 50
62 48 37 38 39 36 31 34 37 37 34 31 32 34 32 43 36 36 34 35 36 30 30 29 28 32 34 32 34 37 39 39 42 44 43 43 44 47 47 50 51 51 52 52
47 41 41 41 39 34 27 31 32 36 35 34 33 38 34 42 43 37 39 35 30 31 31 28 31 31 30 34 34 34 40 41 41 43 43 46 47 49 49 50 50 51 52 52
45 45 43 38 36 34 36 36 37 37 34 36 38 42 44 42 37 38 37 34 30 29 30 30 31 31 35 38 37 35 40 42 42 43 45 46 47 49 49 50 49 50 51 51
45 42 40 40 42 39 38 39 36 38 34 38 44 48 42 39 38 35 36 32 32 29 28 30 31 32 36 39 40 38 40 42 43 44 45 46 46 46 47 48 48 49 50 49
41 43 42 43 42 48 42 43 37 37 41 43 51 49 40 36 36 32 34 30 30 27 32 32 32 36 41 43 41 42 42 43 44 45 45 46 46 46 46 46 47 48 48 47
47 47 49 45 44 43 40 39 36 34 38 47 48 36 36 37 35 34 30 31 31 31 31 31 34 41 43 44 45 47 49 48 47 47 47 47 46 46 46 46 47 47 47 48
47 46 47 47 41 43 40 39 38 39 40 40 36 30 36 34 31 33 31 31 32 35 33 35 42 44 44 46 49 50 49 48 47 47 46 47 46 45 47 46 47 48 49 49
46 48 44 46 42 49 49 47 43 46 44 33 32 32 31 34 32 31 34 30 33 36 40 44 45 44 45 48 51 49 49 48 48 47 46 45 45 46 47 47 46 48 50 51
45 47 51 48 45 48 47 45 42 41 34 38 35 34 33 33 32 31 34 33 39 44 46 46 44 45 47 49 50 49 49 48 48 47 46 45 44 45 46 48 49 51 51 52
Wind_Direction
6 5 4 3 3 2 8 4 354 6 8 1 3 357 358 358 356 353 348 339 330 320 313 307 297 293 295 300 292 284 288 276 261 262 272 268 253 257 257 254 252 253 261 263
5 4 4 3 4 4 3 357 357 8 6 356 357 1 359 1 357 356 353 343 336 327 317 311 308 304 307 307 294 283 283 276 265 255 260 276 261 277 270 267 257 252 249 257
3 3 4 3 4 4 5 360 355 360 5 6 359 356 359 357 2 359 357 342 341 334 323 318 312 308 311 307 299 294 285 269 266 253 262 270 271 272 278 271 256 256 256 249
1 1 2 3 3 3 4 2 356 358 352 355 355 356 355 355 357 3 354 354 350 339 331 314 308 308 305 306 304 299 289 269 266 269 269 268 268 272 269 264 270 258 255 251
359 359 1 2 2 2 2 357 356 356 344 350 352 355 356 354 356 353 349 348 346 340 330 315 301 304 304 302 300 300 294 273 272 267 269 267 259 273 267 265 265 262 260 258
356 358 359 359 0 4 0 1 0 355 351 349 348 352 353 350 352 359 356 350 342 339 322 319 311 310 302 293 291 295 294 284 273 260 269 266 256 268 266 269 273 266 259 268
354 355 356 358 358 1 357 357 357 351 344 347 344 344 347 348 350 348 353 358 0 351 348 337 335 324 311 308 306 302 296 290 280 267 264 254 259 270 271 263 276 272 275 280
353 355 353 353 355 355 353 356 354 351 343 344 342 351 348 349 354 358 360 5 3 357 355 343 330 334 328 320 317 311 300 293 286 274 269 258 261 267 265 259 265 287 288 289
352 351 349 350 351 352 352 353 357 351 346 355 355 346 350 351 353 359 8 7 9 9 354 349 335 321 317 313 313 318 310 299 287 283 272 261 266 274 268 263 258 281 279 278
350 349 348 348 348 348 350 351 1 352 344 348 357 349 348 352 358 358 1 355 12 15 349 334 328 324 332 310 304 301 300 298 289 283 279 278 289 283 276 255 259 276 278 281
351 350 348 346 346 344 348 349 357 351 346 343 349 357 353 352 355 356 352 360 17 4 351 342 339 329 330 321 316 305 298 294 293 290 282 275 303 287 273 273 279 284 285 288
347 350 347 347 347 343 345 345 358 1 350 347 349 345 342 340 340 343 352 354 0 4 351 355 354 339 342 328 309 323 298 301 295 298 293 305 316 316 308 298 289 291 291 293
348 344 346 348 347 348 348 351 4 2 353 348 360 358 359 359 348 341 345 353 354 6 9 354 356 346 352 326 326 320 318 311 299 298 305 304 313 313 311 307 303 301 303 298
348 350 346 345 345 345 347 348 12 7 360 353 3 12 359 344 335 337 346 340 351 1 5 353 351 345 351 337 330 323 310 304 303 302 304 302 306 313 308 306 310 308 307 304
350 348 348 349 354 357 353 31 24 17 7 356 357 2 351 343 339 338 345 346 348 352 359 350 353 3 2 350 340 330 312 300 291 295 305 298 304 307 307 304 303 305 304 302
350 351 352 355 2 17 20 9 7 27 33 9 2 4 350 338 343 345 349 346 350 350 356 356 8 9 10 358 336 338 321 304 296 292 292 294 298 305 311 304 303 304 305 304
352 354 354 355 4 27 14 9 16 58 34 11 2 6 359 346 346 349 342 348 342 348 359 357 7 11 11 9 333 322 311 307 306 293 291 297 307 302 303 307 307 307 307 306
357 359 10 24 33 31 22 16 52 47 17 9 5 4 5 342 345 343 342 327 331 338 359 9 4 17 16 5 353 327 312 306 304 300 298 300 300 304 307 312 313 307 306 307
358 10 24 29 29 28 35 35 24 13 12 13 14 7 4 333 343 334 332 318 317 345 350 0 13 2 356 6 360 331 312 307 298 296 299 303 305 306 310 309 308 306 305 306
14 24 24 23 29 31 45 30 25 21 22 19 19 5 6 341 330 333 313 314 322 331 341 9 358 357 20 8 360 354 315 310 309 304 305 304 304 306 308 309 310 310 309 307
22 22 25 35 35 36 34 33 30 26 30 21 11 1 352 341 342 328 319 319 325 334 337 339 346 346 349 350 356 355 329 314 314 311 308 308 305 305 305 306 308 311 310 309
30 38 43 35 30 32 33 30 30 25 24 10 0 347 349 345 337 332 325 324 323 335 336 338 339 348 349 344 345 352 342 324 316 313 308 308 307 304 303 305 307 309 311 312
33 29 28 27 29 24 26 20 22 16 8 359 345 344 348 349 341 345 335 341 334 334 329 334 334 336 332 333 338 335 338 335 325 313 310 308 306 306 306 305 310 312 312 312
24 23 22 28 26 26 24 19 15 12 4 352 347 1 353 344 344 340 342 339 335 334 333 336 331 327 328 327 327 325 320 320 321 316 310 307 307 307 308 309 310 310 310 308
27 29 24 28 32 26 24 21 19 15 8 5 8 12 357 354 352 342 341 339 334 329 332 330 324 325 326 325 323 320 320 320 321 320 319 312 311 311 310 312 312 312 312 312
34 34 32 27 29 21 19 17 17 13 11 23 22 20 17 2 356 354 342 342 335 329 325 322 323 326 325 323 320 321 320 319 319 319 319 318 317 313 310 311 315 314 312 312
34 34 32 33 32 23 21 20 21 20 31 22 26 24 18 6 5 0 345 343 329 321 321 322 327 326 325 322 320 320 319 318 318 318 319 320 322 320 317 311 311 311 311 311